Stations météo

réclame
Mon MeteoGroup
Horn, Suède (2557): Température de l'air & dewpoint: 17.05.2018 22:00:00 - 23.05.2018 22:00:00 (CEST)Horn, Suède (2557): Vitesse du vent & gusts: 17.05.2018 22:00:00 - 23.05.2018 22:00:00 (CEST)Horn, Suède (2557): Direction du vent: 17.05.2018 22:00:00 - 23.05.2018 22:00:00 (CEST)Horn, Suède (2557): reduced air pressure: 17.05.2018 22:00:00 - 23.05.2018 22:00:00 (CEST)Horn, Suède (2557): visibility: 17.05.2018 22:00:00 - 23.05.2018 22:00:00 (CEST)Horn, Suède (2557): Quantités de précipitations: 17.05.2018 22:00:00 - 23.05.2018 22:00:00 (CEST)
Date & Time tt [°C] td [°C] ff [km/h] ff [knt] fx [km/h] fx [knt] dd ppp [hPa] vv [km] rr [mm]
23.05.2018 22:00:00 15,2 6,0 5 3 18 10 NE 1027,7 - 0,0
23.05.2018 21:00:00 19,2 5,6 7 4 29 16 ENE 1026,4 - 0,0
23.05.2018 20:00:00 20,9 6,4 9 5 29 16 E 1025,5 - 0,0
23.05.2018 19:00:00 22,6 4,1 14 7 27 15 E 1024,7 - 0,0
23.05.2018 18:00:00 23,7 5,1 10 5 - - NNW 1024,0 - -
23.05.2018 17:00:00 - - - - - - - - - -
23.05.2018 16:00:00 - - - - - - - - - -
23.05.2018 15:00:00 25,4 5,0 9 5 21 12 N 1023,4 30 0,0
23.05.2018 14:00:00 25,3 5,0 12 7 19 11 N 1023,5 38 0,0
23.05.2018 13:00:00 24,4 4,2 5 3 18 10 NNW 1023,3 33 0,0
23.05.2018 12:00:00 23,7 5,1 6 3 16 9 WNW 1023,0 37 0,0
23.05.2018 11:00:00 22,9 4,4 6 4 14 7 WNW 1022,8 27 0,0
23.05.2018 10:00:00 21,4 9,0 0 0 5 3 N 1022,8 27 0,0
23.05.2018 09:00:00 18,5 8,2 0 0 3 2 N 1022,4 33 0,0
23.05.2018 08:00:00 15,9 10,4 0 0 3 2 N 1021,9 23 0,0
23.05.2018 07:00:00 11,1 10,0 0 0 2 1 N 1021,7 32 0,0
23.05.2018 06:00:00 6,0 5,7 0 0 5 3 N 1021,5 23 0,0
23.05.2018 05:00:00 2,3 1,9 0 0 5 3 N 1021,1 15 0,0
23.05.2018 04:00:00 2,7 2,1 0 0 5 3 N 1020,6 1,6 0,0
23.05.2018 03:00:00 3,0 2,4 0 0 5 3 N 1020,3 22 0,0
23.05.2018 02:00:00 4,1 3,4 0 0 8 4 N 1020,1 25 0,0
23.05.2018 01:00:00 4,3 3,6 0 0 8 4 N 1020,0 33 0,0
23.05.2018 00:00:00 5,1 3,6 0 0 0 0 N 1019,9 31 0,0
22.05.2018 23:00:00 6,5 4,3 0 0 6 3 N 1019,4 32 0,0
22.05.2018 22:00:00 9,6 6,5 0 0 11 6 N 1019,1 24 0,0
22.05.2018 21:00:00 14,2 6,8 4 2 27 15 SE 1018,5 50 0,0
22.05.2018 20:00:00 16,8 6,6 6 3 27 15 ESE 1018,1 10 0,0
22.05.2018 19:00:00 19,8 5,1 13 7 23 12 ESE 1017,8 12 0,0
22.05.2018 18:00:00 20,9 4,0 11 6 25 14 ESE 1017,6 37 0,0
22.05.2018 17:00:00 22,0 5,4 12 7 25 14 NE 1017,8 39 0,0
22.05.2018 16:00:00 22,1 4,2 10 5 22 12 ENE 1017,9 35 0,0
22.05.2018 15:00:00 22,0 4,5 13 7 24 13 ENE 1018,4 38 0,0
22.05.2018 14:00:00 21,6 6,7 11 6 24 13 SE 1018,7 37 0,0
22.05.2018 13:00:00 21,9 4,5 11 6 26 14 ESE 1019,1 18 0,0
22.05.2018 12:00:00 20,9 4,4 10 6 26 14 NE 1019,6 40 0,0
22.05.2018 11:00:00 21,4 4,9 8 4 20 11 ESE 1020,1 34 0,0
22.05.2018 10:00:00 19,9 5,2 9 5 16 8 N 1020,4 30 0,0
22.05.2018 09:00:00 17,8 4,7 6 3 11 6 NNW 1021,0 37 0,0
22.05.2018 08:00:00 14,0 9,2 0 0 0 0 N 1021,6 38 0,0
22.05.2018 07:00:00 9,0 7,4 0 0 0 0 N 1022,1 39 0,0
22.05.2018 06:00:00 4,3 3,9 0 0 0 0 N 1022,7 30 0,0
22.05.2018 05:00:00 1,1 0,7 0 0 0 0 N 1023,0 13 0,0
22.05.2018 04:00:00 1,7 1,1 0 0 0 0 N 1023,3 2,8 0,0
22.05.2018 03:00:00 2,3 1,7 0 0 0 0 N 1023,5 26 0,0
22.05.2018 02:00:00 3,5 2,6 0 0 1 0 N 1023,7 42 0,0
22.05.2018 01:00:00 4,6 3,6 0 0 3 1 N 1023,8 48 0,0
22.05.2018 00:00:00 5,4 3,6 0 0 3 1 N 1024,2 44 0,0
21.05.2018 23:00:00 7,1 5,1 0 0 5 3 N 1024,4 20 0,0
21.05.2018 22:00:00 9,5 5,7 0 0 18 10 N 1024,5 42 0,0
21.05.2018 21:00:00 15,6 3,7 5 3 18 10 SE 1024,2 50 0,0
21.05.2018 20:00:00 19,0 3,6 10 5 16 9 ESE 1024,0 50 0,0
21.05.2018 19:00:00 20,8 5,2 9 5 15 8 ESE 1023,9 41 0,0
21.05.2018 18:00:00 22,4 4,9 4 2 15 8 E 1024,2 24 0,0
21.05.2018 17:00:00 23,2 2,1 0 0 16 9 N 1024,9 30 0,0
21.05.2018 16:00:00 23,4 4,8 4 2 16 9 W 1025,5 37 0,0
21.05.2018 15:00:00 22,8 2,3 4 2 16 9 S 1026,2 31 0,0
21.05.2018 14:00:00 22,0 4,1 6 3 19 10 SSW 1026,9 12 0,0
21.05.2018 13:00:00 21,7 0,8 8 5 19 10 SW 1027,4 48 0,0
21.05.2018 12:00:00 21,5 2,7 6 3 15 8 S 1027,8 39 0,0
21.05.2018 11:00:00 20,2 5,4 8 4 12 7 SW 1028,4 38 0,0
21.05.2018 10:00:00 19,4 6,8 4 2 8 5 SSW 1028,6 34 0,0
21.05.2018 09:00:00 16,9 6,1 5 3 8 5 S 1028,8 39 0,0
21.05.2018 08:00:00 13,8 7,8 4 2 6 3 S 1029,1 47 0,0
21.05.2018 07:00:00 8,3 6,8 0 0 0 0 N 1029,4 41 0,0
21.05.2018 06:00:00 5,2 4,6 0 0 0 0 N 1029,4 22 0,0
21.05.2018 05:00:00 3,6 3,0 0 0 4 2 N 1029,3 28 0,0
21.05.2018 04:00:00 3,2 2,3 0 0 4 2 N 1029,2 26 0,0
21.05.2018 03:00:00 4,1 2,8 2 1 4 2 SW 1029,0 50 0,0
21.05.2018 02:00:00 5,5 3,8 0 0 5 3 N 1029,0 50 0,0
21.05.2018 01:00:00 6,4 3,9 0 0 6 4 N 1028,6 50 0,0
21.05.2018 00:00:00 8,1 4,3 0 0 15 8 N 1028,3 50 0,0
20.05.2018 23:00:00 13,7 3,7 7 4 19 10 SSW 1027,6 50 0,0
20.05.2018 22:00:00 15,9 3,0 12 7 21 12 S 1027,0 11 0,0
20.05.2018 21:00:00 17,4 3,3 12 7 24 13 S 1026,2 49 0,0
20.05.2018 20:00:00 21,0 1,3 16 8 24 13 S 1025,6 5 0,0
20.05.2018 19:00:00 22,4 5,8 8 5 19 10 SW 1025,5 10 0,0
20.05.2018 18:00:00 23,6 0,6 9 5 23 12 SSW 1025,5 11 0,0
20.05.2018 17:00:00 24,3 1,2 7 4 33 18 WSW 1026,0 35 0,0
20.05.2018 16:00:00 23,8 2,6 11 6 34 18 SW 1026,3 15 0,0
20.05.2018 15:00:00 23,7 0,1 16 9 26 14 S 1026,4 37 0,0
20.05.2018 14:00:00 23,5 1,8 12 7 31 17 SSW 1026,8 36 0,0
20.05.2018 13:00:00 23,0 3,5 14 7 31 17 SSE 1026,9 41 0,0
20.05.2018 12:00:00 22,4 0,2 8 4 24 13 SSW 1027,5 41 0,0
20.05.2018 11:00:00 21,2 2,5 12 6 22 12 SW 1027,5 30 0,0
20.05.2018 10:00:00 20,4 4,0 13 7 20 11 WSW 1027,5 39 0,0
20.05.2018 09:00:00 18,3 6,2 5 3 12 6 SSW 1027,2 36 0,0
20.05.2018 08:00:00 15,1 7,4 5 3 8 5 S 1027,3 48 0,0
20.05.2018 07:00:00 9,4 8,2 0 0 4 2 N 1027,4 40 0,0
20.05.2018 06:00:00 2,7 2,1 0 0 4 2 N 1027,4 40 0,0
20.05.2018 05:00:00 0,3 -0,1 0 0 4 2 N 1027,2 50 0,0
20.05.2018 04:00:00 0,3 -0,3 0 0 3 1 N 1027,1 36 0,0
20.05.2018 03:00:00 1,0 0,3 0 0 1 0 N 1026,8 37 0,0
20.05.2018 02:00:00 1,4 0,5 0 0 5 3 N 1026,4 48 0,0
20.05.2018 01:00:00 2,6 1,3 0 0 5 3 N 1026,2 37 0,0
20.05.2018 00:00:00 3,4 1,9 0 0 6 4 N 1025,8 50 0,0
19.05.2018 23:00:00 5,8 3,5 0 0 6 4 N 1025,2 24 0,0
19.05.2018 22:00:00 7,6 3,5 5 3 16 8 SE 1024,9 14 0,0
19.05.2018 21:00:00 12,1 3,6 6 3 19 10 SSE 1024,2 50 0,0
19.05.2018 20:00:00 15,8 3,9 9 5 19 10 SSE 1023,5 49 0,0
19.05.2018 19:00:00 18,3 2,6 7 4 19 10 SE 1023,3 43 0,0
19.05.2018 18:00:00 19,7 -0,3 6 4 16 8 SE 1023,0 34 0,0
19.05.2018 17:00:00 20,1 1,5 4 2 19 10 NNE 1023,0 40 0,0
19.05.2018 16:00:00 20,4 0,2 3 1 19 10 SW 1023,0 28 0,0
19.05.2018 15:00:00 20,0 2,4 7 4 17 9 S 1023,2 36 0,0
19.05.2018 14:00:00 19,1 0,6 5 3 17 9 W 1023,4 36 0,0
19.05.2018 13:00:00 18,8 2,6 3 2 21 12 NNW 1023,6 30 0,0
19.05.2018 12:00:00 17,8 0,0 7 4 21 12 E 1023,8 32 0,0
19.05.2018 11:00:00 17,2 -0,1 7 4 18 10 NNE 1023,8 40 0,0
19.05.2018 10:00:00 17,0 1,0 4 2 9 5 ESE 1023,9 25 0,0
19.05.2018 09:00:00 15,2 5,1 0 0 4 2 N 1023,7 31 0,0
19.05.2018 08:00:00 11,3 5,4 0 0 1 0 N 1023,7 41 0,0
19.05.2018 07:00:00 7,3 6,1 0 0 0 0 N 1023,5 22 0,0
19.05.2018 06:00:00 1,8 1,4 0 0 0 0 N 1023,5 33 0,0
19.05.2018 05:00:00 0,2 -0,2 0 0 0 0 N 1023,3 2,6 0,0
19.05.2018 04:00:00 0,0 -0,6 0 0 0 0 N 1023,2 6 0,0
19.05.2018 03:00:00 0,3 -0,4 0 0 0 0 N 1023,0 16 0,0
19.05.2018 02:00:00 0,8 -0,1 0 0 0 0 N 1022,6 11 0,0
19.05.2018 01:00:00 1,7 0,2 0 0 5 3 N 1022,3 45 0,0
19.05.2018 00:00:00 3,0 1,2 0 0 5 3 N 1022,0 49 0,0
18.05.2018 23:00:00 4,6 2,3 0 0 11 6 N 1021,7 50 0,0
18.05.2018 22:00:00 7,3 2,8 3 1 27 15 SW 1021,1 28 0,0
18.05.2018 21:00:00 13,3 1,0 9 5 27 15 SE 1020,2 44 0,0
18.05.2018 20:00:00 16,3 0,0 7 4 21 12 NNW 1019,3 39 0,0
18.05.2018 19:00:00 17,4 0,5 9 5 24 13 NW 1018,9 42 0,0
18.05.2018 18:00:00 18,0 -0,3 11 6 25 13 NW 1018,6 36 0,0
18.05.2018 17:00:00 18,3 0,0 13 7 25 14 NNW 1018,5 32 0,0
18.05.2018 16:00:00 18,5 0,6 10 5 25 14 NW 1018,4 31 0,0
18.05.2018 15:00:00 18,6 1,1 10 5 27 15 N 1018,5 26 0,0
18.05.2018 14:00:00 18,0 1,5 10 6 27 15 N 1018,6 30 0,0
18.05.2018 13:00:00 17,4 3,3 11 6 26 14 N 1018,8 27 0,0
18.05.2018 12:00:00 16,5 3,5 14 8 30 16 N 1018,9 28 0,0
18.05.2018 11:00:00 15,4 2,9 16 8 32 17 N 1018,9 32 0,0
18.05.2018 10:00:00 14,8 2,7 13 7 32 17 NNE 1018,6 35 0,0
18.05.2018 09:00:00 13,6 3,1 16 9 32 17 N 1018,4 34 0,0
18.05.2018 08:00:00 12,6 2,7 15 8 26 14 N 1017,9 43 0,0
18.05.2018 07:00:00 11,2 4,0 9 5 21 12 NNW 1017,5 39 0,0
18.05.2018 06:00:00 10,0 3,7 8 5 26 14 N 1017,2 47 0,0
18.05.2018 05:00:00 9,6 2,7 13 7 22 12 NNW 1017,2 50 0,0
18.05.2018 04:00:00 10,4 2,7 11 6 20 11 N 1016,9 50 0,0
18.05.2018 03:00:00 10,8 2,4 12 7 24 13 NNW 1016,9 50 0,0
18.05.2018 02:00:00 10,1 3,4 6 4 24 13 N 1016,8 50 0,0
18.05.2018 01:00:00 10,0 6,5 8 4 13 7 NNE 1016,5 47 0,0
18.05.2018 00:00:00 8,1 7,0 3 2 6 3 ENE 1016,6 38 0,0
17.05.2018 23:00:00 8,6 6,9 0 0 10 6 N 1016,5 31 0,0
17.05.2018 22:00:00 10,3 6,4 0 0 17 9 N 1015,7 43 0,0

tt = Température de l'air
td = dewpoint
ff = Vitesse du vent
fx = gusts
dd = Direction du vent
ppp = reduced air pressure
vv = visibility
rr = Quantités de précipitations

stations d'obs. à proximité